#timestamp,LO_Frequency,Hit,StdDev 
1509829215.3,286047003.1,P
1509829235.2,286047008.8,Y
1509829255.0,286047005.1,P
1509829255.9,286047005.1,N
1509829275.8,286047007.5,P
1509829295.6,286047003.8,N
1509829315.4,286047002.9,N
1509829335.3,286047005.5,N
1509829355.1,286047007.3,Y
1509829356.0,286047007.3,P
1509829375.8,286047000.9,N
1509829395.7,286047001.2,N
1509829415.5,286046999.0,N
1509829435.3,286046997.1,N
1509829455.2,286046993.4,N
1509829475.9,286046994.3,N
1509829495.7,286046997.9,N
1509829515.6,286046992.4,N
1509829535.4,286046992.4,N
1509829555.2,286046993.8,N
1509829575.1,286046995.3,N
1509829576.0,286046995.3,N
1509829595.8,286046993.3,N
1509829615.6,286046996.4,N
1509829635.5,286046998.7,N
1509829655.3,286047001.1,N
1509829675.1,286047003.8,N
1509829695.9,286047004.2,N
1509829715.7,286047004.9,N
1509829735.5,286047001.6,N
1509829755.4,286046998.3,N
1509829775.2,286046999.1,N
1509829795.0,286046995.4,N
1509829795.9,286046995.4,N
1509829815.8,286046998.3,N
1509829835.6,286047000.7,N
1509829855.4,286047004.3,N
1509829875.3,286047001.0,N
1509829895.1,286046995.1,N
1509829915.8,286046992.9,N
1509829935.7,286046987.3,Y
1509829955.5,286046989.9,P
1509829975.3,286046986.1,P
1509829995.2,286046984.3,P
1509830015.0,286046987.8,N
1509830015.9,286046987.8,N
1509830035.8,286046986.5,Y
1509830055.6,286046996.0,P
1509830075.4,286046996.1,N
1509830095.3,286046995.8,N
1509830115.1,286046993.5,N
1509830116.0,286046993.5,N
1509830135.8,286046990.2,Y
1509830155.7,286046997.5,P
1509830175.5,286046997.5,N
1509830195.3,286046996.2,N
1509830215.2,286046996.4,N
1509830235.9,286046993.9,Y
1509830255.7,286046997.7,P
1509830275.6,286046994.4,P
1509830295.4,286046996.1,N
1509830315.2,286046995.4,Y
1509830335.1,286046997.9,P
1509830336.0,286046997.9,N
1509830355.8,286046994.6,P
1509830375.7,286046988.9,Y
1509830395.5,286046994.8,P
1509830415.3,286046993.6,P
1509830435.2,286046996.3,N
1509830455.9,286046994.5,Y
1509830475.7,286046993.5,P
1509830495.6,286046994.1,P
1509830515.4,286046994.6,P
1509830535.2,286046997.6,Y
1509830555.1,286047002.3,P
1509830556.0,286047002.3,N
1509830575.8,286047007.0,N
1509830595.6,286047010.1,N
1509830615.5,286047012.0,N
1509830635.3,286047009.5,N
1509830655.1,286047007.7,N
1509830675.9,286047011.7,N
1509830695.7,286047013.4,N
1509830715.5,286047012.1,N
1509830735.4,286047010.9,N
1509830755.2,286047013.2,N
1509830775.0,286047012.7,N
1509830775.9,286047012.7,N
1509830795.8,286047013.8,N
1509830815.6,286047015.0,N
1509830835.4,286047016.0,Y
1509830855.3,286047006.2,P
1509830875.1,286047013.8,P
1509830895.8,286047016.7,P
1509830915.7,286047016.1,Y
1509830935.5,286047006.5,P
1509830955.4,286047008.4,P
1509830975.2,286047010.4,P
1509830995.0,286047010.8,Y
1509830995.9,286047010.8,P
1509831015.8,286046998.9,N
1509831035.6,286046995.9,N
1509831055.4,286046992.8,N
1509831075.3,286046994.5,N
1509831095.1,286046993.8,N
1509831096.0,286046993.8,N
1509831115.8,286046990.3,N
1509831135.7,286046991.4,N
1509831155.5,286046993.6,N
1509831175.3,286046998.1,N
1509831195.2,286046996.8,N
1509831215.0,286046997.6,N
1509831215.9,286046997.6,N
1509831235.7,286047000.6,N
1509831255.6,286046997.7,N
1509831275.4,286046994.9,N
1509831295.2,286046995.8,N
1509831315.1,286046995.8,N
1509831316.0,286046995.8,N
1509831335.8,286046995.4,N
1509831355.6,286046994.7,N
1509831375.5,286046993.5,N
1509831395.3,286046993.4,N
1509831415.1,286046991.6,N
1509831435.9,286046993.5,N
1509831455.7,286046995.0,N
1509831475.5,286046995.3,N
1509831495.4,286046993.7,N
1509831515.2,286046996.7,N
1509831535.0,286046999.8,N
1509831535.9,286046999.8,N
1509831555.8,286047000.1,N
1509831575.6,286047005.6,N
1509831595.4,286047006.6,N
1509831615.3,286047002.9,N
1509831635.1,286047003.4,N
1509831655.8,286047002.5,N
1509831675.7,286047002.0,N
1509831695.5,286047008.8,N
1509831715.3,286047008.6,N
1509831735.2,286047003.2,N
1509831755.0,286047007.4,N
1509831755.9,286047007.4,N
1509831775.8,286047005.9,N
1509831795.6,286047004.4,N
1509831815.4,286047001.8,N
1509831835.3,286047000.1,N
1509831855.1,286047000.9,N
1509831856.0,286047000.9,N
1509831875.8,286047002.7,N
1509831895.7,286046997.2,N
1509831915.5,286046996.9,N
1509831935.3,286046996.2,N
1509831955.2,286046995.1,N
1509831975.9,286046993.8,N
1509831995.7,286046991.7,N
1509832015.6,286046994.9,N
1509832035.4,286046999.6,N
1509832055.2,286046999.5,N
1509832075.1,286046998.0,N
1509832076.0,286046998.0,N
1509832095.8,286046996.2,N
1509832115.6,286046997.6,N
1509832135.5,286046995.2,N
1509832155.3,286046992.5,N
1509832175.1,286046994.4,N
1509832195.9,286046995.5,N
1509832215.7,286046992.1,N
1509832235.5,286046996.2,N
1509832255.4,286046996.8,N
1509832275.2,286046994.4,N
1509832295.0,286046993.2,N
1509832295.9,286046993.2,N
1509832315.8,286046992.9,N
1509832335.6,286046990.8,N
1509832355.4,286046992.9,N
1509832375.3,286046989.3,Y
1509832395.1,286046992.0,P
1509832396.0,286046992.0,P
1509832415.8,286046994.6,N
1509832435.7,286046997.9,N
1509832455.5,286046998.0,N
1509832475.3,286046993.7,N
1509832495.2,286046995.9,N
1509832515.9,286046996.3,N
1509832535.7,286046996.8,N
1509832555.6,286046996.8,N
1509832575.4,286046994.0,N
1509832595.2,286046994.1,Y
1509832615.1,286046997.1,P
1509832616.0,286046997.1,P
1509832635.8,286046996.4,P
1509832655.7,286046996.2,Y
1509832675.5,286046998.2,P
1509832695.3,286046998.9,N
1509832715.1,286047000.7,N
1509832735.9,286047005.5,Y
1509832755.7,286047011.4,P
1509832775.6,286047015.1,N
1509832795.4,286047014.6,N
